Overview Statistics Trail Chart Weather Telemetry Raw packets
 

This is the latest recevied weather packets stored in our database for station/object KD7CIH. If no packets are shown the sender has not sent any weather packets the latest 10 day(s).

<< 89 90 91 92 93 94 95 >>
Time Temp. Humidity Pressure Rain* Wind** Luminosity Snow
1788043295 16.11° C 67% 1015.8 hPa 0 mm - - -
1788042995 16.11° C 71% 1016 hPa 0 mm - - -
1788042697 15.56° C 69% 1016.3 hPa 0 mm - - -
1788042522 15.56° C 72% 1016.1 hPa 0 mm - - -
1788042094 16.11° C 69% 1016.1 hPa 0 mm - - -
1788041796 15.56° C 73% 1016.1 hPa 0 mm - - -
1788041494 15.56° C 76% 1016.3 hPa 0 mm - - -
1788041194 15° C 77% 1016.1 hPa 0 mm - - -
1788040893 15° C 77% 1016.3 hPa 0 mm - - -
1788040605 15° C 78% 1016.1 hPa 0 mm - - -
1788040293 14.44° C 79% 1016.1 hPa 0 mm - - -
1788039993 14.44° C 82% 1016 hPa 0 mm - - -
1788039695 14.44° C 83% 1015.9 hPa 0 mm - - -
1788039391 14.44° C 83% 1015.9 hPa 0 mm - - -
1788039212 14.44° C 83% 1015.8 hPa 0 mm - - -
1788038779 14.44° C 84% 1016 hPa 0 mm - - -
1788038475 14.44° C 83% 1016.1 hPa 0 mm - - -
1788038167 13.89° C 85% 1016.4 hPa 0 mm - - -
1788037868 13.89° C 84% 1016.5 hPa 0 mm - - -
1788037568 13.89° C 85% 1016.8 hPa 0.25 mm - - -
1788037268 13.89° C 85% 1016.9 hPa 0.51 mm - - -
1788036966 13.89° C 86% 1016.9 hPa 0.76 mm - - -
1788036793 13.89° C 85% 1016.8 hPa 0.76 mm - - -
1788036369 13.89° C 87% 1017.5 hPa 0.76 mm - - -
1788036066 13.89° C 87% 1017.6 hPa 0.76 mm - - -

* Rain latest hour (hover to see other rain measurements)
** Current wind speed in m/s (hover to see current wind gust speed)